Time,TemperatureF,DewpointF,PressureIn,WindDirection,WindDirectionDegrees,WindSpeedMPH,WindSpeedGustMPH,Humidity,HourlyPrecipIn,Conditions,Clouds,dailyrainin,SoftwareType,DateUTC
2013-07-19 09:02:00,77.0,70.0,30.05,SSW,213,3.0,-999.0,79,-99.99,,,-99.99,,2013-07-19 14:02:00,
2013-07-19 09:11:00,78.0,71.0,30.05,South,187,3.0,-999.0,78,-99.99,,,-99.99,,2013-07-19 14:11:00,
2013-07-19 09:22:00,78.0,70.0,30.05,SSE,149,3.0,-999.0,77,-99.99,,,-99.99,,2013-07-19 14:22:00,
2013-07-19 09:33:00,78.0,70.0,30.06,SSW,206,4.0,-999.0,77,-99.99,,,-99.99,,2013-07-19 14:33:00,
2013-07-19 09:43:00,78.0,70.0,30.05,SSW,209,2.0,-999.0,77,-99.99,,,-99.99,,2013-07-19 14:43:00,
2013-07-19 09:52:00,78.0,70.0,30.05,WSW,242,1.0,-999.0,77,-99.99,,,-99.99,,2013-07-19 14:52:00,
2013-07-19 10:02:00,78.0,70.0,30.05,SSE,165,2.0,-999.0,77,-99.99,,,-99.99,,2013-07-19 15:02:00,
2013-07-19 10:11:00,79.0,71.0,30.05,SW,227,3.0,-999.0,76,-99.99,,,-99.99,,2013-07-19 15:11:00,
2013-07-19 10:22:00,79.0,71.0,30.05,SW,216,3.0,-999.0,76,-99.99,,,-99.99,,2013-07-19 15:22:00,
2013-07-19 10:32:00,79.0,70.0,30.05,South,187,3.0,-999.0,75,-99.99,,,-99.99,,2013-07-19 15:32:00,
2013-07-19 10:43:00,80.0,71.0,30.05,SSE,160,4.0,-999.0,75,-99.99,,,-99.99,,2013-07-19 15:43:00,
2013-07-19 10:52:00,81.0,72.0,30.05,SSW,207,6.0,-999.0,73,-99.99,,,-99.99,,2013-07-19 15:52:00,
2013-07-19 11:01:00,82.0,72.0,30.05,SSE,155,3.0,-999.0,72,-99.99,,,-99.99,,2013-07-19 16:01:00,
2013-07-19 11:11:00,82.0,71.0,30.04,SSE,149,4.0,-999.0,70,-99.99,,,-99.99,,2013-07-19 16:11:00,
2013-07-19 11:22:00,82.0,71.0,30.04,SSW,207,5.0,-999.0,70,-99.99,,,-99.99,,2013-07-19 16:22:00,
2013-07-19 11:32:00,83.0,72.0,30.03,South,173,3.0,-999.0,70,-99.99,,,-99.99,,2013-07-19 16:32:00,
2013-07-19 11:43:00,83.0,71.0,30.03,SSE,155,5.0,-999.0,68,-99.99,,,-99.99,,2013-07-19 16:43:00,
2013-07-19 11:52:00,83.0,72.0,30.03,SSW,196,5.0,-999.0,69,-99.99,,,-99.99,,2013-07-19 16:52:00,
2013-07-19 12:02:00,84.0,71.0,30.03,SSE,157,5.0,-999.0,66,-99.99,,,-99.99,,2013-07-19 17:02:00,
2013-07-19 12:12:00,85.0,72.0,30.02,South,175,5.0,-999.0,65,-99.99,,,-99.99,,2013-07-19 17:12:00,
2013-07-19 12:22:00,85.0,72.0,30.02,SSE,164,4.0,-999.0,66,-99.99,,,-99.99,,2013-07-19 17:22:00,
2013-07-19 12:32:00,85.0,72.0,30.02,South,172,4.0,-999.0,65,-99.99,,,-99.99,,2013-07-19 17:32:00,
2013-07-19 12:43:00,86.0,72.0,30.01,SSE,167,4.0,-999.0,63,-99.99,,,-99.99,,2013-07-19 17:43:00,
2013-07-19 12:52:00,86.0,72.0,30.01,SSW,202,5.0,-999.0,64,-99.99,,,-99.99,,2013-07-19 17:52:00,
2013-07-19 13:01:00,87.0,73.0,30.01,South,175,7.0,-999.0,63,-99.99,,,-99.99,,2013-07-19 18:01:00,
2013-07-19 13:11:00,87.0,72.0,30.01,SSE,152,6.0,-999.0,62,-99.99,,,-99.99,,2013-07-19 18:11:00,
2013-07-19 13:22:00,87.0,72.0,30.00,SSE,153,5.0,-999.0,62,-99.99,,,-99.99,,2013-07-19 18:22:00,
2013-07-19 13:32:00,87.0,72.0,30.00,SSE,152,8.0,-999.0,62,-99.99,,,-99.99,,2013-07-19 18:32:00,
2013-07-19 13:42:00,88.0,72.0,29.99,SSE,163,4.0,-999.0,59,-99.99,,,-99.99,,2013-07-19 18:42:00,
2013-07-19 13:52:00,88.0,70.0,29.99,SSW,205,5.0,-999.0,56,-99.99,,,-99.99,,2013-07-19 18:52:00,
2013-07-19 14:01:00,89.0,71.0,29.98,South,171,6.0,-999.0,56,-99.99,,,-99.99,,2013-07-19 19:01:00,
2013-07-19 14:11:00,89.0,70.0,29.98,South,187,6.0,-999.0,53,-99.99,,,-99.99,,2013-07-19 19:11:00,
2013-07-19 14:21:00,90.0,69.0,29.98,South,181,4.0,-999.0,51,-99.99,,,-99.99,,2013-07-19 19:21:00,
2013-07-19 14:32:00,90.0,69.0,29.97,South,186,3.0,-999.0,50,-99.99,,,-99.99,,2013-07-19 19:32:00,
2013-07-19 14:43:00,90.0,68.0,29.97,SSE,165,6.0,-999.0,49,-99.99,,,-99.99,,2013-07-19 19:43:00,
2013-07-19 14:52:00,90.0,68.0,29.96,SSE,155,6.0,-999.0,49,-99.99,,,-99.99,,2013-07-19 19:52:00,
2013-07-19 15:01:00,90.0,68.0,29.96,SSE,152,3.0,-999.0,49,-99.99,,,-99.99,,2013-07-19 20:01:00,
2013-07-19 15:11:00,91.0,67.0,29.96,South,188,2.0,-999.0,46,-99.99,,,-99.99,,2013-07-19 20:11:00,
2013-07-19 15:22:00,91.0,69.0,29.95,SE,137,5.0,-999.0,48,-99.99,,,-99.99,,2013-07-19 20:22:00,
2013-07-19 15:33:00,91.0,69.0,29.94,SSW,195,3.0,-999.0,49,-99.99,,,-99.99,,2013-07-19 20:33:00,
2013-07-19 15:43:00,91.0,69.0,29.93,SSW,209,8.0,-999.0,48,-99.99,,,-99.99,,2013-07-19 20:43:00,
2013-07-19 15:52:00,91.0,70.0,29.93,SE,144,5.0,-999.0,51,-99.99,,,-99.99,,2013-07-19 20:52:00,
2013-07-19 16:01:00,92.0,69.0,29.93,SSW,209,5.0,-999.0,47,-99.99,,,-99.99,,2013-07-19 21:01:00,
2013-07-19 16:11:00,92.0,70.0,29.93,SE,145,4.0,-999.0,49,-99.99,,,-99.99,,2013-07-19 21:11:00,
2013-07-19 16:22:00,91.0,70.0,29.92,SSE,167,4.0,-999.0,50,-99.99,,,-99.99,,2013-07-19 21:22:00,
2013-07-19 16:32:00,91.0,69.0,29.92,SE,131,4.0,-999.0,48,-99.99,,,-99.99,,2013-07-19 21:32:00,
2013-07-19 16:42:00,91.0,70.0,29.92,South,170,4.0,-999.0,50,-99.99,,,-99.99,,2013-07-19 21:42:00,
2013-07-19 16:52:00,90.0,70.0,29.92,SE,143,3.0,-999.0,52,-99.99,,,-99.99,,2013-07-19 21:52:00,
2013-07-19 17:01:00,90.0,70.0,29.92,South,173,3.0,-999.0,52,-99.99,,,-99.99,,2013-07-19 22:01:00,
2013-07-19 17:11:00,90.0,69.0,29.91,SSE,149,3.0,-999.0,51,-99.99,,,-99.99,,2013-07-19 22:11:00,
2013-07-19 17:21:00,90.0,70.0,29.91,SE,141,2.0,-999.0,52,-99.99,,,-99.99,,2013-07-19 22:21:00,
2013-07-19 17:32:00,90.0,71.0,29.91,SSE,156,3.0,-999.0,53,-99.99,,,-99.99,,2013-07-19 22:32:00,
2013-07-19 17:42:00,90.0,71.0,29.91,SW,214,1.0,-999.0,53,-99.99,,,-99.99,,2013-07-19 22:42:00,
2013-07-19 17:52:00,90.0,70.0,29.91,SSW,200,1.0,-999.0,52,-99.99,,,-99.99,,2013-07-19 22:52:00,
2013-07-19 18:01:00,90.0,70.0,29.91,South,173,2.0,-999.0,52,-99.99,,,-99.99,,2013-07-19 23:01:00,
2013-07-19 18:11:00,90.0,71.0,29.91,SSE,168,1.0,-999.0,53,-99.99,,,-99.99,,2013-07-19 23:11:00,
2013-07-19 18:21:00,89.0,70.0,29.91,South,174,0.0,-999.0,53,-99.99,,,-99.99,,2013-07-19 23:21:00,
2013-07-19 18:33:00,90.0,71.0,29.91,SSE,156,2.0,-999.0,54,-99.99,,,-99.99,,2013-07-19 23:33:00,
2013-07-19 18:43:00,90.0,70.0,29.91,SSW,204,3.0,-999.0,52,-99.99,,,-99.99,,2013-07-19 23:43:00,
2013-07-19 18:52:00,90.0,69.0,29.91,SSE,156,3.0,-999.0,50,-99.99,,,-99.99,,2013-07-19 23:52:00,
2013-07-19 19:01:00,90.0,70.0,29.91,SW,219,2.0,-999.0,52,-99.99,,,-99.99,,2013-07-20 00:01:00,
2013-07-19 19:11:00,89.0,70.0,29.91,South,184,2.0,-999.0,54,-99.99,,,-99.99,,2013-07-20 00:11:00,
2013-07-19 19:22:00,89.0,71.0,29.92,South,180,1.0,-999.0,55,-99.99,,,-99.99,,2013-07-20 00:22:00,
2013-07-19 19:32:00,89.0,71.0,29.92,South,169,3.0,-999.0,56,-99.99,,,-99.99,,2013-07-20 00:32:00,
2013-07-19 19:43:00,88.0,71.0,29.91,South,169,2.0,-999.0,57,-99.99,,,-99.99,,2013-07-20 00:43:00,
2013-07-19 19:52:00,88.0,71.0,29.92,South,170,2.0,-999.0,58,-99.99,,,-99.99,,2013-07-20 00:52:00,
2013-07-19 20:01:00,88.0,72.0,29.92,South,175,0.0,-999.0,59,-99.99,,,-99.99,,2013-07-20 01:01:00,
2013-07-19 20:11:00,87.0,71.0,29.92,South,171,1.0,-999.0,60,-99.99,,,-99.99,,2013-07-20 01:11:00,